DW0809 Weather Reports


time (UTC)temp
C
wind
direction
speed
KPH
gust
KPH
rain 1hr
cm
rain 24hr
cm
rain mn
cm
humidity
%
barometer
mb
20260906180516 31 135 1.6 4.8 0.00 0.00 0.00 70 1016.8
20260906175557 31 158 3.2 12.9 0.00 0.00 0.00 69 1016.8
20260906174517 31 158 3.2 8.0 0.00 0.00 0.00 69 1016.9
20260906173516 31 158 3.2 8.0 0.00 0.00 0.00 72 1017.0
20260906172517 30 113 3.2 8.0 0.00 0.00 0.00 73 1017.1
20260906171516 30 158 3.2 6.4 0.00 0.00 0.00 74 1017.3
20260906170517 30 90 1.6 6.4 0.00 0.00 0.00 75 1017.4
20260906165516 30 113 3.2 6.4 0.00 0.00 0.00 76 1017.4
20260906164536 30 113 3.2 9.7 0.00 0.00 0.00 79 1017.6
20260906163516 29 113 1.6 4.8 0.00 0.00 0.00 81 1017.6
20260906162516 28 135 1.6 4.8 0.00 0.00 0.00 81 1017.8
20260906161517 28 158 1.6 4.8 0.00 0.00 0.00 82 1017.9
20260906160517 28 0.0 0.0 0.00 0.00 0.00 84 1017.9
20260906155516 27 0.0 0.0 0.00 0.00 0.00 84 1018.1
20260906154516 27 270 3.2 6.4 0.00 0.00 0.00 84 1018.3
20260906153516 27 270 4.8 9.7 0.00 0.00 0.00 84 1018.2
20260906152516 27 113 1.6 3.2 0.00 0.00 0.00 84 1017.5
20260906151516 27 113 1.6 3.2 0.00 0.00 0.00 85 1017.5
20260906150516 27 113 1.6 4.8 0.00 0.00 0.00 85 1017.5
20260906145536 27 113 1.6 6.4 0.00 0.00 0.00 86 1017.5
20260906144516 27 113 3.2 6.4 0.00 0.00 0.00 85 1017.3
20260906143556 27 113 3.2 8.0 0.00 0.00 0.00 85 1017.3
20260906142536 27 113 1.6 8.0 0.00 0.00 0.00 86 1017.4
20260906141536 27 113 1.6 4.8 0.00 0.00 0.00 86 1017.5
20260906140536 27 113 1.6 4.8 0.00 0.00 0.00 86 1017.6
20260906135516 27 113 1.6 4.8 0.00 0.00 0.00 86 1017.7
20260906134536 27 113 1.6 6.4 0.00 0.00 0.00 86 1017.7
20260906133516 27 113 1.6 6.4 0.00 0.00 0.00 87 1017.7
20260906132516 26 113 1.6 11.3 0.00 0.00 0.00 90 1017.6
20260906131516 26 113 1.6 8.0 0.00 0.00 0.00 91 1017.5
20260906130516 25 158 1.6 3.2 0.00 0.00 0.00 92 1017.7
20260906125516 25 113 1.6 3.2 0.00 0.00 0.00 92 1017.5
20260906124516 25 0.0 3.2 0.00 0.00 0.00 92 1017.3
20260906123516 25 90 1.6 3.2 0.00 0.00 0.00 92 1017.3
20260906122516 24 0.0 3.2 0.00 0.00 0.00 92 1017.1
20260906121536 24 135 1.6 3.2 0.00 0.00 0.00 92 1017.0
20260906120536 24 0.0 1.6 0.00 0.00 0.00 91 1017.1
20260906115518 24 0.0 1.6 0.00 0.00 0.00 91 1016.9
20260906114537 25 0.0 3.2 0.00 0.00 0.00 91 1016.6
20260906113517 25 0.0 3.2 0.00 0.00 0.00 91 1016.6
20260906112517 25 0.0 3.2 0.00 0.00 0.00 91 1016.6
20260906111519 25 0.0 1.6 0.00 0.00 0.00 91 1016.8
20260906110518 25 0.0 0.0 0.00 0.00 0.00 91 1016.9
20260906105517 25 0.0 0.0 0.00 0.00 0.00 91 1016.8
20260906104517 25 0.0 0.0 0.00 0.00 0.00 91 1016.6
20260906103517 25 0.0 4.8 0.00 0.00 0.00 91 1016.4
20260906102537 25 0.0 1.6 0.00 0.00 0.00 90 1016.3
20260906101520 25 0.0 0.0 0.00 0.00 0.00 90 1016.3
20260906100517 25 0.0 1.6 0.00 0.00 0.00 90 1016.3
20260906095517 25 0.0 3.2 0.00 0.00 0.00 90 1016.3
20260906094518 25 0.0 3.2 0.00 0.00 0.00 90 1016.3
20260906093557 25 0.0 3.2 0.00 0.00 0.00 90 1016.3
20260906092517 25 0.0 0.0 0.00 0.00 0.00 89 1016.3
20260906091557 25 0.0 0.0 0.00 0.00 0.00 89 1016.2
20260906090516 25 0.0 1.6 0.00 0.00 0.00 88 1016.1
20260906085517 25 0.0 1.6 0.00 0.00 0.00 88 1016.3
20260906084516 25 0.0 1.6 0.00 0.00 0.00 88 1016.3
20260906083516 25 0.0 1.6 0.00 0.00 0.00 87 1016.1
20260906082517 25 0.0 0.0 0.00 0.00 0.00 87 1016.0
20260906081517 25 0.0 0.0 0.00 0.00 0.00 87 1016.0
20260906080517 26 0.0 3.2 0.00 0.00 0.00 86 1016.0
20260906075516 26 135 1.6 6.4 0.00 0.00 0.00 86 1015.8
20260906074517 26 0.0 1.6 0.00 0.00 0.00 86 1016.0
20260906073517 26 0.0 1.6 0.00 0.00 0.00 86 1016.0
20260906072516 26 0.0 3.2 0.00 0.00 0.00 86 1016.0
20260906071516 26 0.0 3.2 0.00 0.00 0.00 86 1016.0
20260906070517 26 0.0 3.2 0.00 0.00 0.00 85 1016.1
20260906065516 26 0.0 1.6 0.00 0.00 0.00 85 1016.2
20260906064537 26 0.0 1.6 0.00 0.00 0.00 85 1016.3
20260906063536 26 0.0 1.6 0.00 0.00 0.00 85 1016.3
20260906062517 26 0.0 0.0 0.00 0.00 0.00 84 1016.3
20260906061536 26 113 1.6 3.2 0.00 0.00 0.00 84 1016.2
20260906060516 26 0.0 1.6 0.00 0.00 0.00 84 1016.3
20260906055515 26 0.0 1.6 0.00 0.00 0.00 84 1016.4
20260906054515 26 90 1.6 3.2 0.00 0.00 0.00 84 1016.3
20260906053515 27 0.0 3.2 0.00 0.00 0.00 83 1016.3
20260906052515 27 0.0 0.0 0.00 0.00 0.00 83 1016.4
20260906051515 27 0.0 0.0 0.00 0.00 0.00 82 1016.5
20260906050515 27 0.0 0.0 0.00 0.00 0.00 82 1016.5
20260906045536 27 0.0 1.6 0.00 0.00 0.00 81 1016.4
20260906044516 27 0.0 1.6 0.00 0.00 0.00 81 1016.3
20260906043516 28 0.0 3.2 0.00 0.00 0.00 81 1016.2
20260906042516 28 0.0 1.6 0.00 0.00 0.00 80 1016.4
20260906041516 28 0.0 3.2 0.00 0.00 0.00 79 1016.3
20260906040516 28 0.0 0.0 0.00 0.00 0.00 79 1016.2
20260906035537 28 0.0 3.2 0.00 0.00 0.00 78 1016.2
20260906034516 28 0.0 1.6 0.00 0.00 0.00 78 1016.2
20260906033516 28 0.0 3.2 0.00 0.00 0.00 78 1016.1
20260906032516 28 0.0 1.6 0.00 0.00 0.00 78 1016.0
20260906031516 29 0.0 3.2 0.00 0.00 0.00 77 1015.9
20260906030516 29 0.0 1.6 0.00 0.00 0.00 77 1015.5
20260906025515 29 0.0 3.2 0.00 0.00 0.00 77 1015.4
20260906024516 29 113 1.6 4.8 0.00 0.00 0.00 76 1015.4
20260906023536 30 113 1.6 3.2 0.00 0.00 0.00 76 1015.3
20260906022656 30 0.0 1.6 0.00 0.00 0.00 76 1015.2
20260906021516 30 113 1.6 3.2 0.00 0.00 0.00 75 1015.0
20260906020536 30 0.0 3.2 0.00 0.00 0.00 75 1014.7
20260906015516 30 90 1.6 3.2 0.00 0.00 0.00 74 1014.6
20260906014536 30 113 1.6 3.2 0.00 0.00 0.00 73 1014.5
20260906013515 31 0.0 3.2 0.00 0.00 0.00 72 1014.3
20260906012516 31 0.0 3.2 0.00 0.00 0.00 72 1014.1
20260906011516 31 0.0 3.2 0.00 0.00 0.00 71 1014.1
20260906010516 31 90 1.6 3.2 0.00 0.00 0.00 71 1014.0
20260906005515 32 113 1.6 4.8 0.00 0.00 0.00 70 1013.9
20260906004516 32 90 1.6 4.8 0.00 0.00 0.00 68 1013.8
20260906003515 33 113 1.6 4.8 0.00 0.00 0.00 65 1013.9
20260906002536 34 0.0 1.6 0.00 0.00 0.00 64 1013.9
20260906001515 35 0.0 4.8 0.00 0.00 0.00 63 1014.0
20260906000516 35 0.0 4.8 0.00 0.00 0.00 62 1014.1
20260905235536 35 113 1.6 4.8 0.00 0.00 0.00 61 1014.1
20260905234515 35 113 1.6 4.8 0.00 0.00 0.00 61 1014.1
20260905233556 35 113 1.6 9.7 0.00 0.00 0.00 61 1014.1
20260905232536 35 113 1.6 4.8 0.00 0.00 0.00 60 1014.1
20260905231536 35 90 1.6 6.4 0.00 0.00 0.00 61 1014.1
20260905230515 35 113 3.2 11.3 0.00 0.00 0.00 60 1014.1
20260905225515 35 113 1.6 4.8 0.00 0.00 0.00 60 1014.0
20260905224515 35 113 1.6 6.4 0.00 0.00 0.00 59 1013.9
20260905223535 35 113 3.2 11.3 0.00 0.00 0.00 58 1013.8
20260905222515 35 113 1.6 4.8 0.00 0.00 0.00 59 1013.6
20260905221517 35 113 3.2 11.3 0.00 0.00 0.00 59 1013.6
20260905220518 35 113 1.6 8.0 0.00 0.00 0.00 60 1013.7
20260905215517 35 113 3.2 11.3 0.00 0.00 0.00 58 1013.7
20260905214517 35 113 3.2 8.0 0.00 0.00 0.00 57 1013.8
20260905213517 35 90 3.2 8.0 0.00 0.00 0.00 57 1013.9
20260905212517 35 113 3.2 8.0 0.00 0.00 0.00 56 1014.2
20260905211517 35 113 3.2 9.7 0.00 0.00 0.00 58 1014.5
20260905210517 35 113 1.6 8.0 0.00 0.00 0.00 57 1014.6
20260905205538 34 113 3.2 11.3 0.00 0.00 0.00 57 1014.7
20260905204517 34 113 3.2 8.0 0.00 0.00 0.00 55 1014.7
20260905203517 34 113 3.2 8.0 0.00 0.00 0.00 57 1015.1
20260905202517 34 113 4.8 11.3 0.00 0.00 0.00 56 1015.4
20260905201517 33 113 3.2 12.9 0.00 0.00 0.00 56 1015.7
20260905200537 33 113 4.8 11.3 0.00 0.00 0.00 56 1015.9
20260905195517 33 113 4.8 11.3 0.00 0.00 0.00 57 1016.0
20260905194558 33 113 4.8 11.3 0.00 0.00 0.00 61 1016.0
20260905193517 33 113 4.8 12.9 0.00 0.00 0.00 59 1016.1
20260905192517 33 113 4.8 9.7 0.00 0.00 0.00 61 1016.2
20260905191517 33 113 3.2 8.0 0.00 0.00 0.00 62 1016.6
20260905190517 33 113 4.8 11.3 0.00 0.00 0.00 62 1016.7
20260905185517 33 113 3.2 9.7 0.00 0.00 0.00 64 1017.0
20260905184517 32 113 4.8 11.3 0.00 0.00 0.00 63 1017.3
20260905183517 32 113 4.8 12.9 0.00 0.00 0.00 63 1017.6
20260905182517 32 113 4.8 12.9 0.00 0.00 0.00 65 1017.5
20260905181517 32 113 4.8 12.9 0.00 0.00 0.00 65 1017.5